[[{"header":{"parameterUnit":"m.s-1","parameterCategory":1,"la1":30.2992,"la2":30.254,"lo1":-89.0895,"lo2":-89.0443,"dy":0.0025,"dx":0.0025,"nx":19,"ny":19,"refTime":"2026-05-12T21:00:00:Z","depth":0,"parameterNumber":2,"parameterNumberName":"U-component_of_WINDS"},"data":[0,0,0,1.5801,1.5802,1.5821,1.5821,1.5859,1.586,0,0,0,0,0,0,0,0,0,0,0,1.5803,1.5804,1.5801,1.5802,1.5821,1.5821,1.5859,1.586,0,0,0,0,0,0,0,0,0,0,0,1.5803,1.5803,1.5804,1.5802,1.5821,1.5821,1.5859,1.584,0,0,0,0,0,0,0,0,0,0,1.5819,1.5828,1.5803,1.5804,1.5802,1.5821,1.5821,1.5839,1.5841,1.5856,0,1.5871,0,1.5866,1.5863,1.5863,0,0,0,1.5796,1.5826,1.5824,1.5804,1.5802,1.5821,1.5811,1.584,1.5843,1.5859,1.5872,1.5873,1.5867,1.5864,1.5864,1.597,1.5971,0,0,1.5795,1.5811,1.5823,1.5826,1.5824,1.581,1.5812,1.5841,1.5856,1.5872,1.5873,1.5868,1.5864,1.5864,1.597,1.5971,0,0,0,1.5796,1.581,1.5807,1.5825,1.5828,1.5811,1.5812,1.5854,1.5852,1.5874,1.5868,1.5864,1.5865,1.5969,1.597,1.6024,0,0,0,1.5795,1.581,1.5807,1.5817,1.5827,1.5841,1.5825,1.585,1.5853,1.5868,1.5864,1.5865,1.5968,1.5969,1.602,1.6046,0,0,0,1.5799,1.5811,1.5816,1.5818,1.5827,1.584,1.584,1.5851,1.585,1.5863,1.5865,1.5967,1.5969,1.6017,1.6041,1.608,0,0,0,1.5808,1.5863,1.5817,1.5876,1.5827,1.5873,1.5839,1.5873,1.5891,1.5864,1.5968,1.597,1.6016,1.6038,1.6077,1.6115,1.6133,0,0,1.5886,1.5873,1.5906,1.5866,1.5925,1.5869,1.5936,1.5937,1.5924,1.5956,1.5958,1.6021,1.6041,1.6079,1.6224,1.6238,0,0,0,1.5936,1.596,1.5973,1.5991,1.5994,1.5999,1.5988,1.5989,1.6016,1.5943,1.6045,1.6056,1.6078,1.6096,1.6108,1.6126,1.5979,1.5978,1.5978,1.6068,1.6049,1.6104,1.6088,1.6106,1.6096,1.6109,1.6108,1.6083,1.6108,1.6117,1.6207,1.6228,1.6237,1.6256,1.6135,1.6135,1.6136,1.6136,1.618,1.6212,1.6179,1.622,1.6201,1.6235,1.6228,1.6209,1.6239,1.6198,1.6216,1.6173,1.6253,1.6269,1.614,1.6139,1.6139,1.6138,1.6138,1.6265,1.6277,1.6278,1.6303,1.6325,1.6307,1.6338,1.6318,1.63,1.6318,1.6327,1.6326,1.6323,1.6324,1.6324,1.6324,1.6325,1.6325,1.6325,1.6353,1.6352,1.638,1.6389,1.6399,1.641,1.6402,1.6411,1.6417,1.64,1.64,1.6373,1.6264,1.6238,1.633,1.6329,1.6328,1.6328,1.6328,1.6474,1.6444,1.6488,1.6498,1.6508,1.6533,1.6508,1.6529,1.6534,1.655,1.652,1.6442,1.6427,1.6418,1.6396,1.6523,1.6523,1.6523,1.6523,1.6546,1.6537,1.6578,1.6597,1.6612,1.6595,1.6646,1.6641,1.663,1.6632,1.6611,1.658,1.6571,1.6562,1.6549,1.6528,1.6686,1.6686,1.6687,1.6621,1.6613,1.666,1.665,1.6657,1.6663,1.6711,1.6734,1.6716,1.6693,1.6634,1.6627,1.6577,1.6561,1.6537,1.6517,1.6479,0,0]},{"header":{"parameterUnit":"m.s-1","parameterCategory":1,"la1":30.2992,"la2":30.254,"lo1":-89.0895,"lo2":-89.0443,"dy":0.0025,"dx":0.0025,"nx":19,"ny":19,"refTime":"2026-05-12T21:00:00:Z","depth":0,"parameterNumber":3,"parameterNumberName":"V-component_of_WINDS"},"data":[0,0,0,-2.42,-2.4202,-2.4329,-2.433,-2.4489,-2.4491,0,0,0,0,0,0,0,0,0,0,0,-2.4161,-2.4162,-2.42,-2.4203,-2.4329,-2.433,-2.4489,-2.4491,0,0,0,0,0,0,0,0,0,0,0,-2.416,-2.4162,-2.4163,-2.4203,-2.4329,-2.433,-2.4489,-2.4394,0,0,0,0,0,0,0,0,0,0,-2.4271,-2.4234,-2.4161,-2.4163,-2.4204,-2.4329,-2.433,-2.4389,-2.44,-2.4431,0,-2.4458,0,-2.4477,-2.4501,-2.4502,0,0,0,-2.4204,-2.4225,-2.4261,-2.4163,-2.4205,-2.4329,-2.4272,-2.4395,-2.4407,-2.4445,-2.4461,-2.4467,-2.448,-2.4502,-2.4503,-2.4681,-2.4681,0,0,-2.4197,-2.4183,-2.4253,-2.4268,-2.4249,-2.4268,-2.4276,-2.4402,-2.4419,-2.4461,-2.447,-2.4482,-2.4503,-2.4505,-2.468,-2.4681,0,0,0,-2.4176,-2.4178,-2.421,-2.4262,-2.4285,-2.4272,-2.4281,-2.4413,-2.4425,-2.4472,-2.4484,-2.4504,-2.4506,-2.4679,-2.468,-2.4707,0,0,0,-2.4172,-2.4166,-2.4207,-2.42,-2.4283,-2.4351,-2.4289,-2.4416,-2.4431,-2.4483,-2.4504,-2.4508,-2.4678,-2.468,-2.4704,-2.4721,0,0,0,-2.4153,-2.4164,-2.4182,-2.4199,-2.4253,-2.4349,-2.4368,-2.442,-2.4438,-2.4502,-2.4508,-2.4678,-2.4679,-2.4702,-2.4718,-2.4765,0,0,0,-2.4129,-2.4202,-2.4182,-2.4268,-2.4252,-2.4364,-2.4367,-2.4451,-2.4509,-2.4505,-2.4678,-2.468,-2.4701,-2.4715,-2.4762,-2.4803,-2.4818,0,0,-2.4214,-2.4212,-2.4264,-2.4249,-2.4362,-2.4346,-2.4463,-2.4528,-2.4546,-2.4635,-2.4639,-2.4705,-2.4717,-2.4764,-2.4908,-2.492,0,0,0,-2.4286,-2.4324,-2.4356,-2.4411,-2.4463,-2.451,-2.4559,-2.4584,-2.466,-2.4589,-2.4735,-2.4743,-2.4771,-2.4791,-2.4801,-2.4827,-2.4689,-2.4688,-2.4688,-2.4386,-2.4407,-2.4495,-2.453,-2.4583,-2.4634,-2.4679,-2.4721,-2.4725,-2.4759,-2.4786,-2.487,-2.4893,-2.4901,-2.4927,-2.4808,-2.4808,-2.4808,-2.4808,-2.4513,-2.4569,-2.4574,-2.4661,-2.4683,-2.4756,-2.4808,-2.4809,-2.488,-2.4851,-2.4877,-2.4845,-2.4913,-2.4938,-2.4811,-2.481,-2.481,-2.481,-2.4809,-2.4581,-2.4612,-2.4641,-2.4723,-2.4784,-2.4818,-2.4887,-2.4903,-2.4919,-2.4944,-2.4975,-2.4975,-2.4977,-2.4958,-2.4958,-2.4958,-2.4959,-2.4959,-2.4959,-2.4641,-2.4673,-2.4729,-2.4792,-2.483,-2.4882,-2.4934,-2.4972,-2.5018,-2.5025,-2.5025,-2.5026,-2.4916,-2.4889,-2.4964,-2.4963,-2.4962,-2.4962,-2.4962,-2.4763,-2.4738,-2.4825,-2.4863,-2.4939,-2.4999,-2.5019,-2.5095,-2.5129,-2.5163,-2.5159,-2.5074,-2.5073,-2.5065,-2.5043,-2.5153,-2.5153,-2.5153,-2.5153,-2.4821,-2.4823,-2.4916,-2.4976,-2.5037,-2.5064,-2.5163,-2.5204,-2.5244,-2.5266,-2.5252,-2.5223,-2.5214,-2.5219,-2.5208,-2.5187,-2.5332,-2.5332,-2.5332,-2.4898,-2.4906,-2.4987,-2.5025,-2.5085,-2.5137,-2.523,-2.53,-2.5339,-2.534,-2.5284,-2.5276,-2.523,-2.5214,-2.5213,-2.5195,-2.5157,0,0]}]]